| time (UTC) | temp F | wind direction | speed knots | gust knots | rain 1hr in | rain 24hr in | rain mn in | humidity % | barometer mb |
| 20260906132739 | 67 | 187 | 1.7 | 10.4 | 0.00 | 0.03 | 0.02 | 90 | 1012.8 |
| 20260906132240 | 67 | 158 | 0.9 | 6.1 | 0.00 | 0.03 | 0.02 | 90 | 1012.8 |
| 20260906131738 | 66 | 235 | 2.6 | 12.2 | 0.00 | 0.03 | 0.02 | 90 | 1013.0 |
| 20260906131238 | 66 | 266 | 1.7 | 6.1 | 0.00 | 0.03 | 0.02 | 90 | 1013.1 |
| 20260906130738 | 66 | 187 | 2.6 | 7.0 | 0.00 | 0.03 | 0.02 | 90 | 1013.2 |
| 20260906130239 | 66 | 213 | 0.9 | 10.4 | 0.00 | 0.03 | 0.02 | 90 | 1013.3 |
| 20260906125738 | 66 | 245 | 2.6 | 8.7 | 0.00 | 0.03 | 0.02 | 90 | 1013.4 |
| 20260906125239 | 66 | 195 | 1.7 | 10.4 | 0.00 | 0.03 | 0.02 | 90 | 1013.4 |
| 20260906124739 | 67 | 184 | 2.6 | 7.8 | 0.00 | 0.03 | 0.02 | 90 | 1013.4 |
| 20260906124238 | 67 | 232 | 4.3 | 7.8 | 0.00 | 0.03 | 0.02 | 90 | 1013.4 |
| 20260906123239 | 67 | 316 | 1.7 | 5.2 | 0.00 | 0.03 | 0.02 | 90 | 1013.4 |
| 20260906122239 | 67 | 192 | 3.5 | 10.4 | 0.00 | 0.03 | 0.02 | 90 | 1013.3 |
| 20260906121740 | 66 | 185 | 5.2 | 13.0 | 0.00 | 0.03 | 0.02 | 90 | 1013.4 |
| 20260906120239 | 66 | 196 | 5.2 | 13.9 | 0.00 | 0.03 | 0.02 | 91 | 1013.5 |
| 20260906115239 | 66 | 161 | 5.2 | 13.9 | 0.00 | 0.03 | 0.02 | 91 | 1013.7 |
| 20260906114739 | 66 | 167 | 4.3 | 13.9 | 0.00 | 0.03 | 0.02 | 90 | 1013.8 |
| 20260906114241 | 66 | 180 | 6.1 | 10.4 | 0.00 | 0.03 | 0.02 | 90 | 1013.9 |
| 20260906113747 | 66 | 174 | 6.1 | 13.9 | 0.00 | 0.03 | 0.02 | 90 | 1013.9 |
| 20260906113253 | 67 | 198 | 4.3 | 7.8 | 0.00 | 0.03 | 0.02 | 89 | 1014.0 |
| 20260906112249 | 66 | 192 | 6.1 | 12.2 | 0.00 | 0.03 | 0.02 | 89 | 1014.1 |
| 20260906111740 | 67 | 155 | 6.1 | 13.9 | 0.00 | 0.03 | 0.02 | 89 | 1014.0 |
| 20260906111239 | 67 | 165 | 8.7 | 15.6 | 0.00 | 0.03 | 0.02 | 89 | 1014.0 |
| 20260906110739 | 66 | 188 | 7.8 | 13.9 | 0.00 | 0.03 | 0.02 | 89 | 1014.1 |
| 20260906105239 | 66 | 201 | 7.8 | 15.6 | 0.00 | 0.03 | 0.02 | 88 | 1014.2 |
| 20260906104739 | 66 | 191 | 7.0 | 14.8 | 0.00 | 0.03 | 0.02 | 88 | 1014.2 |
| 20260906104239 | 66 | 206 | 4.3 | 13.0 | 0.00 | 0.03 | 0.02 | 89 | 1014.3 |
| 20260906103741 | 66 | 170 | 7.8 | 15.6 | 0.00 | 0.03 | 0.02 | 89 | 1014.2 |
| 20260906103239 | 66 | 186 | 8.7 | 15.6 | 0.00 | 0.03 | 0.02 | 89 | 1014.3 |
| 20260906102240 | 65 | 169 | 7.8 | 11.3 | 0.00 | 0.03 | 0.02 | 90 | 1014.4 |
| 20260906101741 | 65 | 165 | 6.1 | 13.0 | 0.00 | 0.03 | 0.02 | 90 | 1014.5 |
| 20260906101240 | 65 | 185 | 7.0 | 13.0 | 0.00 | 0.03 | 0.02 | 90 | 1014.6 |
| 20260906100741 | 65 | 168 | 6.1 | 12.2 | 0.00 | 0.03 | 0.02 | 89 | 1014.8 |
| 20260906100239 | 65 | 182 | 7.0 | 12.2 | 0.00 | 0.03 | 0.02 | 89 | 1014.8 |
| 20260906095741 | 65 | 188 | 6.1 | 14.8 | 0.00 | 0.03 | 0.02 | 89 | 1014.9 |
| 20260906095241 | 65 | 175 | 5.2 | 14.8 | 0.00 | 0.03 | 0.02 | 89 | 1015.0 |
| 20260906093241 | 66 | 179 | 7.8 | 14.8 | 0.00 | 0.03 | 0.02 | 87 | 1015.1 |
| 20260906092240 | 66 | 162 | 6.1 | 13.0 | 0.00 | 0.03 | 0.02 | 87 | 1015.1 |
| 20260906091739 | 66 | 166 | 6.1 | 11.3 | 0.00 | 0.03 | 0.02 | 88 | 1015.1 |
| 20260906090740 | 65 | 156 | 8.7 | 13.9 | 0.00 | 0.03 | 0.02 | 87 | 1015.0 |
| 20260906090241 | 65 | 142 | 7.8 | 12.2 | 0.00 | 0.03 | 0.02 | 87 | 1015.0 |
| 20260906085741 | 65 | 150 | 6.1 | 8.7 | 0.00 | 0.03 | 0.02 | 88 | 1015.1 |
| 20260906084740 | 65 | 174 | 6.1 | 13.0 | 0.00 | 0.03 | 0.02 | 89 | 1015.3 |
| 20260906084241 | 65 | 150 | 6.1 | 12.2 | 0.00 | 0.03 | 0.02 | 89 | 1015.3 |
| 20260906083740 | 65 | 179 | 7.0 | 13.0 | 0.00 | 0.03 | 0.02 | 89 | 1015.4 |
| 20260906083241 | 65 | 178 | 7.0 | 13.9 | 0.00 | 0.03 | 0.02 | 88 | 1015.6 |
| 20260906082740 | 65 | 169 | 7.0 | 14.8 | 0.00 | 0.03 | 0.02 | 88 | 1015.5 |
| 20260906082242 | 65 | 177 | 7.0 | 13.0 | 0.00 | 0.03 | 0.02 | 88 | 1015.5 |
| 20260906081742 | 65 | 176 | 5.2 | 13.0 | 0.00 | 0.03 | 0.02 | 89 | 1015.6 |
| 20260906081241 | 65 | 149 | 9.6 | 14.8 | 0.00 | 0.03 | 0.02 | 89 | 1015.7 |
| 20260906080742 | 65 | 137 | 6.1 | 12.2 | 0.00 | 0.03 | 0.02 | 89 | 1015.8 |
| 20260906080240 | 65 | 174 | 5.2 | 12.2 | 0.00 | 0.03 | 0.02 | 90 | 1015.9 |
| 20260906075741 | 64 | 162 | 6.1 | 11.3 | 0.00 | 0.03 | 0.02 | 90 | 1015.9 |
| 20260906074741 | 64 | 166 | 7.0 | 12.2 | 0.00 | 0.03 | 0.02 | 90 | 1016.0 |
| 20260906073741 | 64 | 183 | 7.8 | 13.9 | 0.00 | 0.03 | 0.02 | 91 | 1015.9 |
| 20260906073241 | 63 | 172 | 5.2 | 13.9 | 0.00 | 0.03 | 0.02 | 92 | 1015.8 |
| 20260906071241 | 63 | 169 | 4.3 | 12.2 | 0.00 | 0.03 | 0.02 | 92 | 1016.2 |
| 20260906070742 | 63 | 188 | 6.1 | 11.3 | 0.00 | 0.03 | 0.02 | 92 | 1016.3 |
| 20260906070243 | 63 | 167 | 6.1 | 11.3 | 0.00 | 0.03 | 0.02 | 92 | 1016.3 |
| 20260906065741 | 62 | 176 | 6.1 | 12.2 | 0.00 | 0.03 | 0.02 | 93 | 1016.3 |
| 20260906065242 | 62 | 177 | 5.2 | 10.4 | 0.00 | 0.03 | 0.02 | 93 | 1016.3 |
| 20260906064741 | 62 | 153 | 5.2 | 11.3 | 0.00 | 0.03 | 0.02 | 93 | 1016.3 |
| 20260906064241 | 62 | 171 | 6.1 | 10.4 | 0.00 | 0.03 | 0.02 | 93 | 1016.3 |
| 20260906063742 | 62 | 172 | 6.1 | 10.4 | 0.00 | 0.03 | 0.02 | 94 | 1016.2 |
| 20260906063241 | 62 | 167 | 6.1 | 8.7 | 0.00 | 0.03 | 0.02 | 94 | 1016.2 |
| 20260906062742 | 62 | 168 | 7.8 | 11.3 | 0.00 | 0.03 | 0.02 | 94 | 1016.3 |
| 20260906062242 | 62 | 162 | 6.1 | 11.3 | 0.00 | 0.03 | 0.02 | 94 | 1016.4 |
| 20260906061742 | 62 | 182 | 4.3 | 12.2 | 0.00 | 0.03 | 0.02 | 94 | 1016.5 |
| 20260906061241 | 62 | 163 | 7.8 | 13.9 | 0.00 | 0.03 | 0.02 | 94 | 1016.5 |
| 20260906060743 | 62 | 172 | 6.1 | 13.9 | 0.00 | 0.03 | 0.02 | 94 | 1016.4 |
| 20260906060241 | 62 | 152 | 6.1 | 12.2 | 0.00 | 0.03 | 0.02 | 94 | 1016.5 |
| 20260906055742 | 62 | 173 | 7.8 | 13.9 | 0.00 | 0.03 | 0.02 | 94 | 1016.6 |
| 20260906054743 | 62 | 178 | 5.2 | 10.4 | 0.00 | 0.03 | 0.02 | 94 | 1016.8 |
| 20260906053744 | 62 | 152 | 5.2 | 13.9 | 0.00 | 0.03 | 0.02 | 93 | 1016.8 |
| 20260906052742 | 62 | 173 | 5.2 | 11.3 | 0.00 | 0.03 | 0.02 | 93 | 1016.9 |
| 20260906052242 | 62 | 167 | 4.3 | 8.7 | 0.00 | 0.03 | 0.02 | 93 | 1017.0 |
| 20260906051244 | 62 | 173 | 3.5 | 10.4 | 0.00 | 0.03 | 0.02 | 93 | 1017.0 |
| 20260906050741 | 62 | 170 | 5.2 | 10.4 | 0.00 | 0.03 | 0.02 | 93 | 1017.1 |
| 20260906050242 | 62 | 161 | 6.1 | 11.3 | 0.00 | 0.03 | 0.02 | 93 | 1017.1 |
| 20260906045743 | 62 | 167 | 4.3 | 12.2 | 0.00 | 0.03 | 0.02 | 94 | 1017.2 |
| 20260906045242 | 62 | 179 | 5.2 | 11.3 | 0.00 | 0.03 | 0.02 | 94 | 1017.1 |
| 20260906044242 | 62 | 157 | 6.1 | 10.4 | 0.00 | 0.03 | 0.02 | 95 | 1017.2 |
| 20260906043742 | 62 | 164 | 5.2 | 8.7 | 0.00 | 0.03 | 0.02 | 95 | 1017.2 |
| 20260906043243 | 62 | 153 | 4.3 | 11.3 | 0.00 | 0.03 | 0.02 | 95 | 1017.2 |
| 20260906041743 | 62 | 156 | 6.1 | 8.7 | 0.00 | 0.03 | 0.02 | 96 | 1017.2 |
| 20260906041242 | 62 | 178 | 5.2 | 10.4 | 0.00 | 0.03 | 0.02 | 96 | 1017.2 |
| 20260906040743 | 63 | 178 | 4.3 | 10.4 | 0.00 | 0.03 | 0.02 | 96 | 1017.2 |
| 20260906040242 | 63 | 135 | 6.1 | 13.9 | 0.00 | 0.03 | 0.02 | 96 | 1017.3 |
| 20260906035742 | 63 | 159 | 5.2 | 8.7 | 0.00 | 0.03 | 0.02 | 96 | 1017.3 |
| 20260906034243 | 63 | 172 | 6.1 | 12.2 | 0.00 | 0.03 | 0.02 | 96 | 1017.5 |
| 20260906033743 | 63 | 177 | 3.5 | 8.7 | 0.00 | 0.03 | 0.02 | 96 | 1017.6 |
| 20260906033243 | 63 | 165 | 5.2 | 7.8 | 0.00 | 0.03 | 0.02 | 96 | 1017.6 |
| 20260906032744 | 63 | 167 | 4.3 | 7.8 | 0.00 | 0.03 | 0.02 | 96 | 1017.6 |
| 20260906032243 | 63 | 146 | 4.3 | 7.0 | 0.00 | 0.03 | 0.02 | 96 | 1017.7 |
| 20260906031244 | 63 | 171 | 5.2 | 7.8 | 0.00 | 0.03 | 0.02 | 96 | 1017.8 |
| 20260906030744 | 63 | 180 | 3.5 | 7.0 | 0.00 | 0.03 | 0.02 | 96 | 1017.9 |
| 20260906030243 | 63 | 175 | 5.2 | 7.8 | 0.00 | 0.03 | 0.02 | 97 | 1017.9 |
| 20260906025244 | 63 | 163 | 4.3 | 7.8 | 0.00 | 0.03 | 0.02 | 97 | 1018.0 |
| 20260906024744 | 63 | 177 | 4.3 | 12.2 | 0.00 | 0.03 | 0.02 | 97 | 1018.0 |
| 20260906024244 | 63 | 157 | 6.1 | 11.3 | 0.00 | 0.03 | 0.02 | 97 | 1018.1 |
| 20260906023243 | 63 | 166 | 7.0 | 10.4 | 0.00 | 0.03 | 0.02 | 97 | 1018.2 |
| 20260906022243 | 63 | 165 | 6.1 | 12.2 | 0.00 | 0.03 | 0.02 | 97 | 1018.2 |
| 20260906021744 | 63 | 180 | 6.1 | 11.3 | 0.00 | 0.03 | 0.02 | 97 | 1018.3 |
| 20260906021245 | 63 | 156 | 5.2 | 10.4 | 0.00 | 0.03 | 0.02 | 97 | 1018.4 |
| 20260906020745 | 63 | 177 | 5.2 | 11.3 | 0.00 | 0.03 | 0.02 | 97 | 1018.5 |
| 20260906020244 | 63 | 179 | 1.7 | 10.4 | 0.00 | 0.03 | 0.02 | 97 | 1018.6 |
| 20260906015744 | 63 | 173 | 4.3 | 8.7 | 0.00 | 0.03 | 0.02 | 97 | 1018.7 |
| 20260906015245 | 63 | 172 | 2.6 | 8.7 | 0.00 | 0.03 | 0.02 | 97 | 1018.7 |
| 20260906014743 | 63 | 176 | 4.3 | 10.4 | 0.01 | 0.03 | 0.02 | 97 | 1018.7 |
| 20260906014244 | 63 | 181 | 3.5 | 11.3 | 0.01 | 0.03 | 0.02 | 96 | 1018.7 |
| 20260906013745 | 63 | 185 | 3.5 | 8.7 | 0.01 | 0.03 | 0.02 | 97 | 1018.9 |
| 20260906013244 | 63 | 167 | 4.3 | 8.7 | 0.01 | 0.03 | 0.02 | 96 | 1019.0 |
| 20260906012743 | 63 | 194 | 2.6 | 6.1 | 0.01 | 0.03 | 0.02 | 96 | 1019.1 |
| 20260906012244 | 63 | 179 | 2.6 | 7.8 | 0.01 | 0.03 | 0.02 | 97 | 1019.1 |
| 20260906011744 | 63 | 154 | 4.3 | 10.4 | 0.01 | 0.03 | 0.02 | 97 | 1019.0 |
| 20260906010744 | 62 | 182 | 4.3 | 7.8 | 0.01 | 0.03 | 0.02 | 96 | 1019.1 |
| 20260906010244 | 62 | 165 | 4.3 | 7.8 | 0.02 | 0.03 | 0.02 | 96 | 1019.3 |
| 20260906005744 | 62 | 158 | 4.3 | 7.8 | 0.02 | 0.03 | 0.02 | 96 | 1019.3 |
| 20260906005245 | 62 | 174 | 5.2 | 10.4 | 0.02 | 0.03 | 0.02 | 96 | 1019.4 |
| 20260906004744 | 62 | 173 | 4.3 | 8.7 | 0.01 | 0.02 | 0.02 | 96 | 1019.5 |
| 20260906004245 | 62 | 178 | 1.7 | 8.7 | 0.01 | 0.02 | 0.02 | 97 | 1019.6 |
| 20260906003244 | 62 | 162 | 5.2 | 8.7 | 0.01 | 0.02 | 0.02 | 97 | 1019.8 |
| 20260906002745 | 62 | 170 | 2.6 | 7.0 | 0.01 | 0.02 | 0.02 | 97 | 1019.9 |
| 20260906002244 | 62 | 182 | 3.5 | 11.3 | 0.01 | 0.02 | 0.02 | 97 | 1020.0 |
| 20260906001744 | 62 | 174 | 3.5 | 8.7 | 0.01 | 0.02 | 0.02 | 97 | 1020.1 |
| 20260906001245 | 62 | 180 | 4.3 | 8.7 | 0.01 | 0.02 | 0.02 | 97 | 1020.2 |
| 20260906000745 | 62 | 189 | 3.5 | 7.0 | 0.01 | 0.02 | 0.02 | 97 | 1020.3 |
| 20260906000244 | 62 | 169 | 2.6 | 7.8 | 0.01 | 0.02 | 0.01 | 97 | 1020.4 |
| 20260905235245 | 62 | 191 | 2.6 | 5.2 | 0.00 | 0.02 | 0.01 | 97 | 1020.4 |
| 20260905234745 | 62 | 174 | 2.6 | 6.1 | 0.00 | 0.02 | 0.01 | 97 | 1020.4 |
| 20260905234244 | 62 | 183 | 4.3 | 11.3 | 0.00 | 0.02 | 0.01 | 96 | 1020.3 |
| 20260905233746 | 62 | 186 | 2.6 | 7.8 | 0.00 | 0.02 | 0.01 | 96 | 1020.4 |
| 20260905233245 | 62 | 183 | 2.6 | 7.0 | 0.00 | 0.02 | 0.01 | 96 | 1020.4 |
| 20260905232745 | 62 | 178 | 2.6 | 7.0 | 0.00 | 0.02 | 0.01 | 96 | 1020.6 |
| 20260905232245 | 62 | 193 | 5.2 | 10.4 | 0.00 | 0.02 | 0.01 | 96 | 1020.6 |
| 20260905231246 | 62 | 174 | 2.6 | 6.1 | 0.01 | 0.02 | 0.01 | 96 | 1020.7 |
| 20260905230246 | 62 | 159 | 2.6 | 5.2 | 0.00 | 0.01 | 0.00 | 96 | 1020.8 |
| 20260905225246 | 62 | 163 | 0.9 | 4.3 | 0.01 | 0.01 | 0.01 | 96 | 1020.8 |
| 20260905224746 | 62 | 163 | 2.6 | 5.2 | 0.01 | 0.01 | 0.01 | 96 | 1020.9 |
| 20260905224245 | 62 | 162 | 2.6 | 7.0 | 0.01 | 0.01 | 0.01 | 96 | 1020.9 |
| 20260905223745 | 62 | 164 | 1.7 | 6.1 | 0.01 | 0.01 | 0.01 | 96 | 1020.9 |
| 20260905223245 | 62 | 140 | 0.9 | 4.3 | 0.01 | 0.01 | 0.01 | 96 | 1020.9 |
| 20260905222747 | 62 | 144 | 1.7 | 4.3 | 0.01 | 0.01 | 0.01 | 96 | 1020.9 |
| 20260905222245 | 62 | 145 | 1.7 | 5.2 | 0.01 | 0.01 | 0.01 | 96 | 1021.0 |
| 20260905221746 | 62 | 185 | 1.7 | 5.2 | 0.01 | 0.01 | 0.01 | 96 | 1021.0 |
| 20260905221246 | 62 | 160 | 2.6 | 8.7 | 0.00 | 0.00 | 0.00 | 96 | 1021.1 |
| 20260905220746 | 62 | 167 | 1.7 | 5.2 | 0.00 | 0.00 | 0.00 | 96 | 1021.1 |
| 20260905220245 | 62 | 142 | 3.5 | 8.7 | 0.00 | 0.00 | 0.00 | 96 | 1021.2 |
| 20260905215747 | 62 | 174 | 5.2 | 11.3 | 0.00 | 0.00 | 0.00 | 96 | 1021.2 |
| 20260905215246 | 62 | 180 | 4.3 | 7.8 | 0.00 | 0.00 | 0.00 | 96 | 1021.2 |
| 20260905214745 | 62 | 161 | 3.5 | 7.0 | 0.00 | 0.00 | 0.00 | 96 | 1021.2 |
| 20260905213745 | 62 | 168 | 3.5 | 6.1 | 0.00 | 0.00 | 0.00 | 95 | 1021.1 |
| 20260905213246 | 62 | 172 | 3.5 | 6.1 | 0.00 | 0.00 | 0.00 | 95 | 1021.3 |
| 20260905212246 | 62 | 174 | 3.5 | 7.0 | 0.00 | 0.00 | 0.00 | 95 | 1021.3 |
| 20260905211745 | 62 | 141 | 2.6 | 5.2 | 0.00 | 0.00 | 0.00 | 95 | 1021.4 |
| 20260905211246 | 62 | 144 | 1.7 | 4.3 | 0.00 | 0.00 | 0.00 | 95 | 1021.4 |
| 20260905210746 | 62 | 158 | 1.7 | 5.2 | 0.00 | 0.00 | 0.00 | 95 | 1021.5 |
| 20260905210246 | 62 | 161 | 1.7 | 5.2 | 0.00 | 0.00 | 0.00 | 95 | 1021.6 |
| 20260905205746 | 62 | 165 | 3.5 | 6.1 | 0.00 | 0.00 | 0.00 | 95 | 1021.6 |
| 20260905204246 | 62 | 179 | 4.3 | 6.1 | 0.00 | 0.00 | 0.00 | 95 | 1021.6 |
| 20260905203746 | 62 | 169 | 4.3 | 7.8 | 0.00 | 0.00 | 0.00 | 95 | 1021.5 |
| 20260905203247 | 62 | 179 | 4.3 | 7.0 | 0.00 | 0.00 | 0.00 | 94 | 1021.6 |
| 20260905202746 | 62 | 178 | 2.6 | 5.2 | 0.00 | 0.00 | 0.00 | 94 | 1021.6 |
| 20260905202247 | 62 | 159 | 1.7 | 2.6 | 0.00 | 0.00 | 0.00 | 94 | 1021.7 |
| 20260905201748 | 62 | 172 | 0.9 | 4.3 | 0.00 | 0.00 | 0.00 | 94 | 1021.7 |
| 20260905200246 | 62 | 180 | 1.7 | 5.2 | 0.00 | 0.00 | 0.00 | 92 | 1021.7 |
| 20260905195747 | 62 | 159 | 2.6 | 5.2 | 0.00 | 0.00 | 0.00 | 91 | 1021.6 |
| 20260905195247 | 63 | 200 | 0.9 | 5.2 | 0.00 | 0.00 | 0.00 | 90 | 1021.7 |
| 20260905194746 | 63 | 229 | 0.9 | 4.3 | 0.00 | 0.00 | 0.00 | 89 | 1021.7 |
| 20260905194247 | 63 | 336 | 0.9 | 6.1 | 0.00 | 0.00 | 0.00 | 88 | 1021.7 |
| 20260905193247 | 63 | 187 | 2.6 | 7.0 | 0.00 | 0.00 | 0.00 | 86 | 1021.6 |
| 20260905192747 | 63 | 180 | 1.7 | 5.2 | 0.00 | 0.00 | 0.00 | 86 | 1021.5 |
| 20260905192247 | 63 | 174 | 1.7 | 5.2 | 0.00 | 0.00 | 0.00 | 86 | 1021.6 |
| 20260905191246 | 63 | 184 | 2.6 | 5.2 | 0.00 | 0.00 | 0.00 | 86 | 1021.5 |
| 20260905190248 | 63 | 158 | 1.7 | 5.2 | 0.00 | 0.00 | 0.00 | 86 | 1021.6 |
| 20260905185746 | 63 | 171 | 2.6 | 5.2 | 0.00 | 0.00 | 0.00 | 86 | 1021.6 |
| 20260905185247 | 63 | 174 | 1.7 | 4.3 | 0.00 | 0.00 | 0.00 | 86 | 1021.7 |
| 20260905184747 | 63 | 168 | 4.3 | 7.0 | 0.00 | 0.00 | 0.00 | 86 | 1021.7 |
| 20260905184247 | 63 | 178 | 2.6 | 7.0 | 0.00 | 0.00 | 0.00 | 86 | 1021.6 |
| 20260905183247 | 63 | 185 | 4.3 | 6.1 | 0.00 | 0.00 | 0.00 | 86 | 1021.7 |
| 20260905182748 | 63 | 170 | 4.3 | 7.0 | 0.00 | 0.00 | 0.00 | 86 | 1021.6 |
| 20260905181748 | 63 | 152 | 4.3 | 7.8 | 0.00 | 0.00 | 0.00 | 86 | 1021.7 |
| 20260905181248 | 63 | 153 | 1.7 | 6.1 | 0.00 | 0.00 | 0.00 | 85 | 1021.7 |
| 20260905180747 | 63 | 176 | 4.3 | 8.7 | 0.00 | 0.00 | 0.00 | 85 | 1021.6 |
| 20260905180248 | 63 | 163 | 4.3 | 8.7 | 0.00 | 0.00 | 0.00 | 85 | 1021.7 |
| 20260905175748 | 63 | 132 | 4.3 | 7.0 | 0.00 | 0.00 | 0.00 | 84 | 1021.6 |
| 20260905175249 | 63 | 156 | 5.2 | 6.1 | 0.00 | 0.00 | 0.00 | 84 | 1021.7 |
| 20260905174747 | 63 | 170 | 4.3 | 8.7 | 0.00 | 0.00 | 0.00 | 83 | 1021.7 |
| 20260905174248 | 63 | 170 | 4.3 | 7.8 | 0.00 | 0.00 | 0.00 | 83 | 1021.8 |
| 20260905173248 | 63 | 149 | 2.6 | 7.0 | 0.00 | 0.00 | 0.00 | 83 | 1021.9 |
| 20260905172747 | 63 | 150 | 3.5 | 6.1 | 0.00 | 0.00 | 0.00 | 82 | 1021.9 |
| 20260905172248 | 63 | 136 | 3.5 | 5.2 | 0.00 | 0.00 | 0.00 | 82 | 1021.9 |
| 20260905171748 | 63 | 150 | 2.6 | 6.1 | 0.00 | 0.00 | 0.00 | 82 | 1021.9 |
| 20260905171248 | 63 | 149 | 4.3 | 6.1 | 0.00 | 0.00 | 0.00 | 82 | 1021.9 |
| 20260905170747 | 63 | 178 | 2.6 | 7.0 | 0.00 | 0.00 | 0.00 | 81 | 1022.0 |
| 20260905165748 | 63 | 182 | 5.2 | 10.4 | 0.00 | 0.00 | 0.00 | 80 | 1022.0 |
| 20260905164747 | 64 | 175 | 2.6 | 8.7 | 0.00 | 0.00 | 0.00 | 80 | 1022.1 |
| 20260905164248 | 64 | 168 | 2.6 | 6.1 | 0.00 | 0.00 | 0.00 | 80 | 1022.1 |
| 20260905163749 | 64 | 309 | 0.0 | 5.2 | 0.00 | 0.00 | 0.00 | 80 | 1022.3 |
| 20260905163248 | 63 | 167 | 6.1 | 8.7 | 0.00 | 0.00 | 0.00 | 80 | 1022.3 |
| 20260905162749 | 64 | 173 | 0.9 | 7.8 | 0.00 | 0.00 | 0.00 | 80 | 1022.4 |
| 20260905162249 | 64 | 176 | 6.1 | 8.7 | 0.00 | 0.00 | 0.00 | 79 | 1022.4 |
| 20260905161749 | 64 | 166 | 6.1 | 14.8 | 0.00 | 0.00 | 0.00 | 79 | 1022.5 |
| 20260905161249 | 64 | 202 | 2.6 | 7.8 | 0.00 | 0.00 | 0.00 | 78 | 1022.5 |
| 20260905160748 | 64 | 174 | 2.6 | 6.1 | 0.00 | 0.00 | 0.00 | 78 | 1022.6 |
| 20260905160249 | 64 | 169 | 2.6 | 7.0 | 0.00 | 0.00 | 0.00 | 78 | 1022.6 |
| 20260905155749 | 65 | 197 | 5.2 | 8.7 | 0.00 | 0.00 | 0.00 | 77 | 1022.6 |
| 20260905155248 | 65 | 185 | 3.5 | 8.7 | 0.00 | 0.00 | 0.00 | 77 | 1022.6 |
| 20260905154248 | 64 | 187 | 6.1 | 10.4 | 0.00 | 0.00 | 0.00 | 77 | 1022.7 |
| 20260905153749 | 64 | 157 | 6.1 | 11.3 | 0.00 | 0.00 | 0.00 | 76 | 1022.7 |
| 20260905153250 | 65 | 171 | 6.1 | 10.4 | 0.00 | 0.00 | 0.00 | 76 | 1022.8 |
| 20260905152749 | 65 | 157 | 7.8 | 12.2 | 0.00 | 0.00 | 0.00 | 75 | 1022.8 |
| 20260905152249 | 65 | 166 | 5.2 | 7.8 | 0.00 | 0.00 | 0.00 | 75 | 1022.7 |
| 20260905151248 | 65 | 168 | 4.3 | 10.4 | 0.00 | 0.00 | 0.00 | 75 | 1022.8 |
| 20260905150749 | 65 | 193 | 6.1 | 13.0 | 0.00 | 0.00 | 0.00 | 75 | 1022.7 |
| 20260905150250 | 66 | 206 | 1.7 | 7.8 | 0.00 | 0.00 | 0.00 | 74 | 1022.9 |
| 20260905145750 | 66 | 193 | 2.6 | 7.0 | 0.00 | 0.00 | 0.00 | 74 | 1023.0 |
| 20260905145249 | 65 | 282 | 1.7 | 5.2 | 0.00 | 0.00 | 0.00 | 73 | 1023.0 |
| 20260905144749 | 65 | 206 | 2.6 | 7.0 | 0.00 | 0.00 | 0.00 | 73 | 1023.0 |
| 20260905144251 | 65 | 339 | 0.9 | 4.3 | 0.00 | 0.00 | 0.00 | 74 | 1023.1 |
| 20260905143753 | 65 | 196 | 2.6 | 6.1 | 0.00 | 0.00 | 0.00 | 75 | 1023.2 |
| 20260905142902 | 65 | 176 | 6.1 | 7.8 | 0.00 | 0.00 | 0.00 | 74 | 1023.3 |
| 20260905142252 | 65 | 159 | 5.2 | 10.4 | 0.00 | 0.00 | 0.00 | 75 | 1023.3 |
| 20260905141254 | 66 | 172 | 2.6 | 8.7 | 0.00 | 0.00 | 0.00 | 73 | 1023.4 |
| 20260905140749 | 66 | 162 | 4.3 | 7.8 | 0.00 | 0.00 | 0.00 | 73 | 1023.4 |
| 20260905140250 | 66 | 200 | 1.7 | 5.2 | 0.00 | 0.00 | 0.00 | 72 | 1023.5 |
| 20260905135751 | 66 | 200 | 1.7 | 6.1 | 0.00 | 0.00 | 0.00 | 73 | 1023.5 |
| 20260905135249 | 66 | 283 | 1.7 | 7.0 | 0.00 | 0.00 | 0.00 | 71 | 1023.5 |
| 20260905134750 | 66 | 282 | 0.9 | 5.2 | 0.00 | 0.00 | 0.00 | 72 | 1023.6 |
| 20260905134250 | 66 | 323 | 4.3 | 10.4 | 0.00 | 0.00 | 0.00 | 72 | 1023.7 |
| 20260905133751 | 66 | 332 | 0.9 | 5.2 | 0.00 | 0.00 | 0.00 | 72 | 1023.7 |